CAPE
33 1 52 21 5 1 36 21 18 53 7 1 2 0 0 0 0 0 0 0 0 0 0 0 0 0 0 0 0 0 0 0 0 0 0 0 0 0 0 0 0 0 0 0 1
0 13 3 30 6 8 19 17 36 69 5 2 0 0 0 0 0 0 0 0 0 0 0 0 0 0 0 0 0 0 0 0 0 0 0 0 0 0 0 0 0 0 0 6 0
1 18 16 66 8 17 9 3 97 66 3 5 2 0 0 0 0 0 0 0 0 0 0 0 0 0 0 0 0 0 0 0 0 0 0 0 0 0 0 0 0 0 0 16 0
0 10 8 2 12 19 1 80 89 24 17 3 0 0 0 0 0 0 0 0 0 0 0 0 0 0 0 0 0 0 0 0 0 0 0 0 0 0 0 0 0 0 0 10 8
21 40 3 12 9 3 4 107 12 5 4 5 4 0 0 0 0 0 0 0 0 0 0 0 0 0 0 0 0 0 0 0 0 0 0 0 0 0 0 0 0 0 0 0 14
36 1 4 30 5 0 11 68 32 6 9 4 0 0 0 0 0 0 0 0 0 0 0 0 0 0 0 0 0 0 0 0 0 0 0 0 0 0 0 0 0 0 0 0 0
14 3 5 1 5 8 84 106 27 16 8 2 0 0 0 0 0 0 0 0 0 0 0 0 0 0 0 0 0 0 0 0 0 0 0 0 0 0 0 0 0 0 0 0 0
4 8 2 0 29 43 75 160 48 37 47 16 0 0 1 0 0 0 0 0 0 0 0 0 0 0 0 0 0 0 0 0 0 0 0 0 0 0 0 0 0 0 0 0 0
25 8 0 0 50 87 76 167 70 82 53 48 5 0 0 2 0 0 0 0 0 0 0 0 0 0 0 0 0 0 0 0 0 0 0 0 0 0 0 0 0 0 0 0 0
5 28 13 0 71 61 100 156 102 72 99 3 1 0 0 0 0 0 15 0 1 2 2 0 0 0 0 0 0 0 0 0 0 0 0 0 0 0 0 0 0 0 0 0 0
0 38 28 1 84 78 143 240 139 6 1 0 0 0 0 0 1 30 1 1 3 1 1 2 0 0 0 0 0 0 0 0 0 0 0 0 0 0 0 0 0 0 0 0 0
1 16 16 0 77 135 110 69 4 4 2 0 0 0 0 0 0 21 0 0 2 2 1 1 1 0 0 0 0 0 0 0 0 0 0 0 0 0 0 0 0 0 0 0 0
3 10 14 5 94 118 47 9 0 0 0 0 0 0 0 0 0 0 0 0 0 1 0 0 0 0 0 0 0 0 0 0 0 0 0 0 0 0 0 0 0 0 0 0 0
1 4 17 101 128 76 28 0 0 0 0 0 0 0 0 0 0 0 0 0 0 2 1 0 0 0 0 0 0 0 0 0 0 0 0 0 0 0 0 0 0 0 0 0 0
1 0 47 85 50 38 0 0 0 0 0 0 0 0 0 0 0 0 0 0 2 2 2 0 0 0 0 0 0 0 0 0 0 0 0 0 0 0 0 0 0 0 0 0 0
0 0 1 50 60 34 0 0 0 0 0 0 0 0 0 0 0 0 0 0 0 1 2 0 0 0 0 0 0 0 0 0 0 0 0 0 0 0 0 0 0 0 0 0 0
2 1 0 39 49 1 0 0 0 0 0 0 0 0 0 0 0 0 0 1 0 0 0 0 0 0 0 0 0 0 0 0 0 0 0 0 0 0 0 0 0 0 0 0 0
0 0 0 38 28 0 0 0 0 0 0 0 0 0 0 0 0 0 0 0 0 0 0 0 0 0 0 0 0 0 0 0 0 0 0 0 0 0 0 0 0 0 0 0 0
0 0 0 63 4 0 4 0 0 0 0 0 0 0 0 0 0 0 0 0 0 0 0 0 0 0 0 0 0 0 0 0 0 0 0 0 0 0 0 0 0 0 0 0 0
0 0 0 26 14 14 0 0 0 0 0 0 0 0 0 0 0 0 0 0 0 0 0 0 0 0 0 0 0 0 0 0 0 0 0 0 0 0 0 0 0 0 0 0 0
0 0 0 11 22 12 0 0 0 0 0 0 0 0 0 0 0 0 0 0 0 0 0 0 0 0 0 0 0 0 0 0 0 0 0 0 0 0 0 0 0 0 0 0 0
0 0 0 0 5 1 0 0 0 0 0 0 0 0 0 0 0 0 0 0 0 0 0 0 0 0 0 0 0 0 0 0 0 0 0 0 0 0 0 0 0 0 0 0 0
0 0 0 3 0 0 0 0 0 0 0 0 0 0 0 0 0 0 0 0 0 0 0 0 0 0 0 0 0 0 0 0 0 0 0 0 0 0 0 0 0 0 0 0 0
0 0 0 0 0 0 0 0 0 0 0 0 0 0 0 0 0 0 0 0 0 0 0 0 0 0 0 0 0 0 0 0 0 0 0 0 0 0 0 0 0 0 0 0 0
0 0 0 0 1 0 0 0 0 0 0 0 0 0 0 0 0 0 0 0 0 0 0 0 0 0 0 0 0 0 0 0 0 0 0 0 0 0 0 0 0 0 0 0 0
0 0 0 0 1 1 0 0 0 0 0 0 0 0 0 0 0 0 0 0 0 0 0 0 0 0 0 0 0 0 0 0 0 0 0 0 0 0 0 0 0 0 0 0 0
1 1 0 1 0 0 0 0 0 0 0 0 0 0 0 0 0 0 0 0 0 0 0 0 0 0 0 0 0 0 0 0 0 0 0 0 0 0 0 0 0 0 0 0 0
CIN
-2 -1 -2 -4 -14 -14 -13 -11 -23 -29 -19 -0 -1 -0 -0 -0 -0 -0 -0 -0 -0 -0 -0 -0 -0 -0 -0 -0 -0 -0 -0 -0 -0 -0 -0 -0 -0 -0 -0 -0 -0 -0 -0 -0 -21
-0 -21 -0 -3 -8 -20 -8 -12 -3 -44 -11 -0 -0 -0 -0 -0 -0 -0 -0 -0 -0 -0 -0 -0 -0 -0 -0 -0 -0 -0 -0 -0 -0 -0 -0 -0 -0 -0 -0 -0 -0 -0 -0 -180 -0
-0 -26 -0 -0 -7 -5 -9 -8 -0 -3 -12 -0 -6 -0 -0 -0 -0 -0 -0 -0 -0 -0 -0 -0 -0 -0 -0 -0 -0 -0 -0 -0 -0 -0 -0 -0 -0 -0 -0 -0 -0 -0 -0 -317 -0
-0 -15 -9 -0 -5 -2 -5 -1 -7 -13 -16 -1 -0 -0 -0 -0 -0 -0 -0 -0 -0 -0 -0 -0 -0 -0 -0 -0 -0 -0 -0 -0 -0 -0 -0 -0 -0 -0 -0 -0 -0 -0 -0 -359 -322
-0 -4 -2 -2 -7 -8 -11 -11 -21 -21 -14 -2 -1 -0 -0 -0 -0 -0 -0 -0 -0 -0 -0 -0 -0 -0 -0 -0 -0 -0 -0 -0 -0 -0 -0 -0 -0 -0 -0 -0 -0 -0 -0 -0 -330
-4 -5 -8 -1 -5 -9 -9 -6 -19 -19 -24 -2 -7 -0 -0 -0 -0 -0 -0 -0 -0 -0 -0 -0 -0 -0 -0 -0 -0 -0 -0 -0 -0 -0 -0 -0 -0 -0 -0 -0 -0 -0 -0 -0 -0
-11 -1 -2 -30 -6 -6 -11 -1 -9 -9 -28 -2 -0 -0 -0 -0 -0 -0 -0 -0 -0 -0 -0 -0 -0 -0 -0 -0 -0 -0 -0 -0 -0 -0 -0 -0 -0 -0 -0 -0 -0 -0 -0 -0 -0
-29 -1 -24 -0 -3 -3 -12 -2 -6 -3 -2 -10 -1 -6 -1 -0 -0 -0 -0 -0 -0 -0 -0 -0 -0 -0 -0 -0 -0 -0 -0 -0 -0 -0 -0 -0 -0 -0 -0 -0 -0 -0 -0 -0 -0
-1 -4 -0 -0 -1 -2 -15 -5 -8 -3 -6 -0 -6 -4 -0 -37 -0 -0 -0 -0 -0 -0 -0 -0 -0 -0 -0 -0 -0 -0 -0 -0 -0 -0 -0 -0 -0 -0 -0 -0 -0 -0 -0 -0 -0
-28 -2 -2 -0 -1 -4 -13 -11 -3 -5 -0 -3 -2 -3 -0 -0 -2 -0 -1 -0 -0 -0 -0 -0 -0 -0 -0 -0 -0 -0 -0 -0 -0 -0 -0 -0 -0 -0 -0 -0 -0 -0 -0 -0 -0
-0 -7 -1 -0 -1 -4 -9 -0 -5 -0 -0 -0 -0 -0 -0 -0 -32 -0 -0 -0 -0 -0 -0 -0 -0 -0 -0 -0 -0 -0 -0 -0 -0 -0 -0 -0 -0 -0 -0 -0 -0 -0 -0 -0 -0
-0 -22 -1 -1 -1 -4 -14 -1 -1 -2 -0 -0 -0 -0 -0 -0 -0 -2 -1 -0 -0 -0 -0 -0 -0 -0 -0 -0 -0 -0 -0 -0 -0 -0 -0 -0 -0 -0 -0 -0 -0 -0 -0 -0 -0
-0 -15 -14 -0 -2 -4 -1 -22 -1 -0 -0 -0 -0 -0 -0 -0 -0 -0 -3 -0 -0 -0 -0 -0 -0 -0 -0 -0 -0 -0 -0 -0 -0 -0 -0 -0 -0 -0 -0 -0 -0 -0 -0 -0 -0
-0 -11 -6 -1 -0 -0 -7 -0 -0 -0 -0 -0 -0 -0 -0 -0 -0 -0 -0 -0 -0 -0 -0 -0 -0 -0 -0 -0 -0 -0 -0 -0 -0 -0 -0 -0 -0 -0 -0 -0 -0 -0 -0 -0 -0
-0 -0 -15 -1 -3 -0 -0 -0 -0 -0 -0 -0 -0 -0 -0 -0 -0 -0 -0 -0 -0 -0 -0 -0 -0 -0 -0 -0 -0 -0 -0 -0 -0 -0 -0 -0 -0 -0 -0 -0 -0 -0 -0 -0 -0
-0 -0 -0 -0 -1 -3 -0 -0 -0 -0 -0 -0 -0 -0 -0 -0 -0 -0 -0 -0 -0 -0 -0 -0 -0 -0 -0 -0 -0 -0 -0 -0 -0 -0 -0 -0 -0 -0 -0 -0 -0 -0 -0 -0 -0
-0 -0 -0 -0 -1 -2 -0 -0 -0 -0 -0 -0 -0 -0 -0 -0 -0 -0 -0 -1 -0 -0 -0 -0 -0 -0 -0 -0 -0 -0 -0 -0 -0 -0 -0 -0 -0 -0 -0 -0 -0 -0 -0 -0 -0
-0 -0 -0 -1 -18 -0 -0 -0 -0 -0 -0 -0 -0 -0 -0 -0 -0 -0 -0 -0 -0 -0 -0 -0 -0 -0 -0 -0 -0 -0 -0 -0 -0 -0 -0 -0 -0 -0 -0 -0 -0 -0 -0 -0 -0
-0 -0 -0 -0 -7 -0 -1 -0 -0 -0 -0 -0 -0 -0 -0 -0 -0 -0 -0 -0 -0 -0 -0 -0 -0 -0 -0 -0 -0 -0 -0 -0 -0 -0 -0 -0 -0 -0 -0 -0 -0 -0 -0 -0 -0
-0 -0 -0 -0 -6 -9 -1 -0 -0 -0 -0 -0 -0 -0 -0 -0 -0 -0 -0 -0 -0 -0 -0 -0 -0 -0 -0 -0 -0 -0 -0 -0 -0 -0 -0 -0 -0 -0 -0 -0 -0 -0 -0 -0 -0
-0 -0 -0 -16 -0 -0 -0 -0 -0 -0 -0 -0 -0 -0 -0 -0 -0 -0 -0 -0 -0 -0 -0 -0 -0 -0 -0 -0 -0 -0 -0 -0 -0 -0 -0 -0 -0 -0 -0 -0 -0 -0 -0 -0 -0
-0 -0 -0 -0 -0 -0 -0 -0 -0 -0 -0 -0 -0 -0 -0 -0 -0 -0 -0 -0 -0 -0 -0 -0 -0 -0 -0 -0 -0 -0 -0 -0 -0 -0 -0 -0 -0 -0 -0 -0 -0 -0 -0 -0 -0
-0 -0 -0 -0 -0 -0 -0 -0 -0 -0 -0 -0 -0 -0 -0 -0 -0 -0 -0 -0 -0 -0 -0 -0 -0 -0 -0 -0 -0 -0 -0 -0 -0 -0 -0 -0 -0 -0 -0 -0 -0 -0 -0 -0 -0
-0 -0 -0 -0 -0 -0 -0 -0 -0 -0 -0 -0 -0 -0 -0 -0 -0 -0 -0 -0 -0 -0 -0 -0 -0 -0 -0 -0 -0 -0 -0 -0 -0 -0 -0 -0 -0 -0 -0 -0 -0 -0 -0 -0 -0
-0 -0 -0 -0 -0 -0 -0 -0 -0 -0 -0 -0 -0 -0 -0 -0 -0 -0 -0 -0 -0 -0 -0 -0 -0 -0 -0 -0 -0 -0 -0 -0 -0 -0 -0 -0 -0 -0 -0 -0 -0 -0 -0 -0 -0
-0 -0 -0 -0 -0 -0 -0 -0 -0 -0 -0 -0 -0 -0 -0 -0 -0 -0 -0 -0 -0 -0 -0 -0 -0 -0 -0 -0 -0 -0 -0 -0 -0 -0 -0 -0 -0 -0 -0 -0 -0 -0 -0 -0 -0
-0 -0 -0 -0 -0 -0 -0 -0 -0 -0 -0 -0 -0 -0 -0 -0 -0 -0 -0 -0 -0 -0 -0 -0 -0 -0 -0 -0 -0 -0 -0 -0 -0 -0 -0 -0 -0 -0 -0 -0 -0 -0 -0 -0 -0
Wind_Speed
38 30 34 31 30 30 30 31 29 27 25 21 19 19 19 19 17 20 31 24 25 22 24 21 23 22 22 24 23 19 21 23 19 16 17 11 8 12 15 5 16 21 21 27 31
41 37 36 32 30 28 28 29 28 26 23 21 18 17 18 19 24 31 23 22 24 25 24 24 25 24 26 26 24 24 24 22 18 18 14 12 6 6 9 9 14 17 17 28 27
37 39 34 35 31 28 27 26 26 24 21 19 16 16 15 14 26 33 20 20 25 25 24 23 24 27 29 24 26 25 29 23 20 19 16 9 8 14 3 15 19 3 17 29 29
37 40 36 36 32 28 25 25 25 22 20 18 16 15 13 20 33 23 18 19 24 27 24 21 26 34 35 29 28 29 28 27 21 17 15 10 11 13 12 20 23 3 23 31 31
33 39 37 38 30 30 26 23 25 22 19 18 16 15 16 28 31 17 15 18 23 25 26 23 27 32 40 35 32 34 28 24 21 18 16 15 15 17 18 18 9 9 11 32 35
32 38 33 36 30 33 29 26 25 22 18 18 16 15 21 37 19 11 12 16 20 23 25 25 25 27 30 37 38 30 28 27 22 17 16 15 16 15 18 14 8 7 21 36 35
29 38 38 33 31 34 33 33 21 22 20 18 16 16 22 25 17 13 11 18 21 21 23 21 22 29 28 32 32 28 29 28 26 20 21 15 21 23 16 14 9 14 28 37 37
31 34 35 33 37 38 37 30 25 22 22 20 20 16 24 18 12 14 12 14 16 18 22 21 20 27 28 28 31 33 29 33 31 23 22 20 26 22 17 14 14 22 27 36 38
27 33 36 38 39 38 38 31 26 23 21 20 19 19 24 10 13 11 12 14 16 17 20 20 24 33 31 32 37 36 40 36 31 28 23 24 24 24 18 18 16 23 28 35 37
26 26 33 40 40 39 38 30 27 24 21 21 22 21 21 22 14 12 14 12 17 18 21 26 29 37 35 37 48 41 39 35 32 28 26 28 26 22 20 22 25 28 31 35 38
25 30 37 40 38 35 34 33 37 23 27 23 22 21 16 15 11 15 12 12 13 21 33 29 41 48 41 42 41 36 34 35 30 28 28 30 29 23 24 28 28 33 34 34 38
26 32 38 40 35 35 36 41 34 21 25 17 18 19 15 17 18 16 14 18 22 31 26 34 60 53 38 38 41 36 39 36 29 29 31 33 35 29 28 32 32 36 37 36 34
28 33 41 42 35 36 39 36 22 20 21 20 20 18 15 17 20 21 19 15 23 29 33 40 49 37 38 42 41 43 42 35 33 26 32 30 38 36 34 34 33 34 36 36 33
27 31 39 42 36 38 40 29 25 19 25 28 27 25 18 17 24 21 18 18 22 29 31 35 27 38 40 49 41 47 36 33 31 31 37 33 39 41 42 40 38 38 35 34 29
27 30 37 33 34 39 34 28 23 21 37 30 31 21 24 22 18 26 23 19 24 26 28 38 38 36 50 48 39 42 32 33 29 33 33 35 40 39 35 43 42 40 36 31 25
25 27 29 42 33 34 31 26 22 32 38 27 27 27 27 26 22 20 24 19 16 25 34 33 30 33 45 44 44 36 29 28 30 34 47 40 39 42 39 38 43 39 34 27 23
27 30 33 39 41 33 31 30 32 40 21 26 28 28 27 26 23 25 27 30 26 34 40 33 35 32 33 42 36 39 34 38 44 47 50 38 41 44 35 35 36 36 33 30 23
29 32 36 47 36 34 33 33 37 35 29 20 27 27 29 26 24 26 28 32 35 34 33 40 46 38 35 41 41 43 40 43 46 52 46 31 46 42 37 31 33 29 27 26 26
27 31 36 42 37 37 38 39 38 29 28 24 24 32 33 35 28 30 33 37 37 37 35 39 39 29 31 32 37 43 48 36 35 35 41 42 43 33 34 33 29 26 23 24 24
26 31 40 41 38 38 40 41 34 25 25 25 31 35 38 37 34 36 36 39 39 41 38 30 38 33 28 29 32 39 34 43 39 47 46 41 45 44 38 36 30 25 23 23 21
26 34 37 42 41 39 45 41 32 26 25 29 29 32 36 32 36 39 37 31 39 38 44 32 37 35 30 38 40 36 41 41 40 39 47 45 45 35 38 35 29 26 26 23 20
26 37 33 41 44 44 47 40 23 26 30 33 31 29 29 29 36 38 42 32 33 32 38 34 32 41 41 31 31 34 41 40 49 46 39 37 42 26 33 33 28 25 24 22 19
29 32 34 43 45 48 42 40 32 31 35 31 28 26 24 27 37 39 40 35 26 36 35 31 32 38 39 38 34 40 41 41 39 37 48 50 40 27 26 26 27 24 21 21 20
26 34 38 38 40 45 44 43 35 32 33 30 27 23 23 28 32 38 34 32 25 36 30 28 31 40 46 46 34 43 42 40 43 50 48 52 42 35 30 27 22 21 20 19 19
24 31 33 48 45 42 42 39 36 35 32 29 27 26 27 29 32 33 31 28 29 29 33 31 38 34 41 40 35 39 42 41 44 49 49 53 45 39 30 24 20 18 17 18 19
27 28 31 37 42 41 44 46 38 29 31 33 25 25 26 30 34 31 28 31 34 28 36 33 37 31 33 30 32 41 40 43 45 42 48 42 45 38 31 29 28 25 22 21 21
23 21 28 34 44 46 49 42 36 29 28 27 19 23 27 30 30 31 21 23 25 29 31 36 33 33 40 27 28 41 39 36 45 44 46 50 47 33 32 31 28 24 21 20 19
Wind_Direction
249 255 240 237 237 236 235 229 224 219 221 222 230 231 237 243 249 250 242 244 241 250 247 242 240 236 243 242 245 248 246 242 251 257 254 253 255 253 244 272 237 214 142 155 130
244 246 247 234 234 232 230 223 216 212 214 221 228 229 236 241 247 243 250 238 242 250 245 234 230 227 237 240 243 242 242 243 258 257 250 246 245 247 259 258 253 231 224 126 124
243 242 247 234 231 230 221 212 208 208 210 219 220 224 228 235 244 247 244 235 241 248 246 239 231 227 232 242 240 241 239 243 257 256 245 230 242 251 225 252 241 109 112 134 136
244 238 242 237 228 220 211 200 196 201 206 208 210 216 219 236 241 258 226 230 237 241 243 229 229 226 229 237 243 241 243 240 255 256 240 231 242 252 252 250 227 178 129 141 145
252 235 235 230 222 215 205 201 190 191 197 199 205 211 223 237 244 271 219 226 236 242 234 231 226 226 226 238 246 238 241 243 248 249 244 242 244 248 247 248 236 223 134 153 161
251 234 239 228 218 214 205 199 196 185 190 197 202 206 234 235 252 261 218 224 231 236 232 233 233 228 229 237 243 242 241 241 242 245 241 242 246 245 246 245 219 192 155 175 167
258 231 229 234 217 212 206 207 186 196 192 193 194 221 239 242 253 236 223 232 233 232 231 238 229 231 237 241 245 245 235 239 237 239 241 240 243 242 241 231 215 231 221 192 185
249 238 232 230 215 210 207 201 198 198 194 201 209 236 247 252 255 233 224 233 237 238 237 237 237 235 237 254 243 234 235 233 234 233 241 239 240 242 239 228 233 234 230 208 198
257 237 230 223 213 208 206 200 197 195 196 201 217 242 245 228 236 229 219 226 227 235 239 235 237 235 239 240 234 230 231 232 231 234 239 238 244 241 237 235 235 236 232 218 211
258 241 231 219 212 205 203 195 196 181 196 211 228 241 243 234 225 221 234 210 232 221 233 232 236 230 231 233 224 226 230 231 229 231 236 235 243 241 236 238 238 236 232 227 218
257 239 223 216 207 200 192 194 201 203 205 222 222 247 240 214 205 225 220 219 225 230 230 229 226 222 223 230 234 235 235 232 236 235 235 236 241 242 237 239 240 235 232 233 223
260 240 221 216 201 191 192 205 202 208 194 233 215 251 233 200 222 213 214 237 228 228 230 230 223 222 226 232 235 241 232 233 238 237 236 237 238 242 240 240 241 236 234 233 234
246 231 214 210 191 190 199 205 194 185 216 232 228 237 220 211 228 217 223 232 230 229 228 230 236 229 229 233 235 237 232 231 234 235 239 239 242 241 241 242 243 241 237 235 237
244 229 212 201 191 195 202 200 193 214 227 228 225 229 223 226 240 221 223 233 242 232 232 241 240 224 230 230 236 235 235 235 234 230 235 238 243 243 241 242 242 240 240 240 243
245 233 214 196 197 197 197 189 193 219 227 226 224 230 223 230 226 225 227 247 234 233 235 236 233 226 227 229 231 235 235 235 234 235 238 241 243 245 245 241 241 240 241 245 247
251 242 227 208 204 197 191 180 203 218 233 224 220 220 217 233 233 210 222 243 235 239 240 248 235 238 235 231 234 238 233 237 237 238 238 240 241 246 243 244 243 243 242 244 246
245 234 224 206 201 185 183 187 209 222 219 228 217 210 212 226 232 213 218 221 233 232 230 240 236 242 233 229 233 228 222 227 231 232 235 241 243 242 248 248 249 244 240 243 243
244 234 224 205 188 177 179 193 217 221 210 231 216 208 222 219 230 224 220 228 231 236 226 230 230 230 229 229 227 225 224 227 230 231 235 242 243 244 247 253 252 250 239 241 245
242 229 219 207 191 182 183 203 222 212 220 216 204 209 225 223 231 225 226 228 228 228 228 228 234 230 234 232 228 229 228 234 241 245 241 242 248 254 248 249 251 248 239 242 248
230 225 215 201 191 191 198 219 228 220 209 200 223 223 221 218 228 226 227 230 229 228 230 237 231 235 236 236 236 233 228 231 238 236 239 245 245 246 245 245 247 246 244 246 250
230 221 216 211 193 198 202 218 226 220 209 216 228 228 228 220 230 227 229 239 224 227 229 241 233 234 235 235 230 232 231 235 238 243 241 245 248 251 248 246 246 246 248 247 248
228 219 218 210 204 210 210 219 231 213 222 228 232 236 228 218 229 230 231 238 222 226 225 235 240 233 234 243 242 240 236 235 235 237 243 249 249 261 254 252 251 249 248 249 250
225 226 223 214 208 209 213 223 226 217 221 229 233 239 230 224 232 233 233 233 228 226 226 229 241 234 236 242 244 238 238 238 241 244 243 243 248 261 263 263 253 249 249 248 248
225 222 217 214 215 208 207 214 223 224 226 234 236 232 225 228 236 231 233 236 246 225 232 229 245 238 236 238 239 237 238 240 239 241 243 244 251 256 260 260 257 250 251 249 246
230 226 222 211 213 210 206 209 216 218 229 230 235 221 226 231 230 231 233 234 235 230 230 236 240 246 245 246 243 245 241 240 241 243 244 246 249 251 256 260 262 258 251 248 247
229 230 226 220 214 204 205 212 217 222 226 227 229 222 220 230 229 226 231 230 231 233 228 236 242 246 248 252 246 246 245 242 243 246 247 251 251 257 263 262 262 261 255 252 248
240 247 231 222 210 204 209 207 215 217 231 230 225 227 230 234 236 235 240 234 237 232 231 233 240 243 245 254 251 246 244 244 245 246 247 247 251 258 259 259 261 260 254 250 246